Tracking 19193 objects as of 24-Jun-2018
HD Live streaming from Space Station
objects crossing your sky now

GOES 7

Track GOES 7 now!
GOES 7 is classified as:


NORAD ID: 17561
Int'l Code: 1987-022A
Perigee: 35,874.9 km
Apogee: 35,923.8 km
Inclination: 15.1 °
Period: 1,441.5 minutes
Semi major axis: 42270 km
RCS: 10.3409 m2 (large)
Launch date: February 26, 1987
Source: United States (US)
Launch site: AIR FORCE EASTERN TEST RANGE (AFETR)
aabbcc
Your satellite tracking list
Your tracking list is empty




NASA's NSSDC Master Catalog

Two Line Element Set (TLE):
1 17561U 87022A   18174.65661795 +.00000096 +00000-0 +00000-0 0  9990
2 17561 015.1054 001.9767 0005786 329.5626 216.3444 00.99896323097837
Source of the keplerian elements: AFSPC